User: anonymous   Login
Location: Erdweis
(48.5167°N, 15.3500°E)
Time: 20:05:32
(UTC+00:00)
Language:

Ariane Rocket - Orbit

View from above orbital plane
View from above orbital plane
View from above satellite
View from above satellite

Ground track
Ground track

The orbit data is extracted from the following two-line orbital elements,

1 23561U 95021B   21169.59922531  .00000024  00000-0  22995-4 0  9996
2 23561  98.6739 219.4137 0005881 242.6879 234.3646 14.38030992371196
Epoch (UTC): 18 June 2021 14:22:53
Eccentricity: 0.0005881
inclination: 98.6739°
perigee height: 761 km
apogee height: 769 km
right ascension of ascending node: 219.4137°
argument of perigee: 242.6879°
revolutions per day: 14.38030992
mean anomaly at epoch: 234.3646°
orbit number at epoch: 37119

The dashed part of the orbit path shows where the satellite is in the earth's shadow,  

DLR